• In Russia
  • List of Countries
  • For 7 days
  • Water Temperature
  • Satellite Maps
  • Weather Map
  • Weather Widgets
  • user-avatar
    Login

    Hourly Weather Lankaran

    Today, 22 May, Monday

    Time Temperature Precipitation Wind Pressure Humidity
    00:00 +8°C° 0 mm 2 mps 629 mmHg 59%
    01:00 +8°C° 0 mm 2 mps 629 mmHg 60%
    02:00 +7°C° 0 mm 2 mps 629 mmHg 60%
    03:00 +7°C° 0 mm 2 mps 629 mmHg 62%
    04:00 +8°C° 0 mm 2 mps 629 mmHg 61%
    05:00 +9°C° 0 mm 2 mps 630 mmHg 61%
    06:00 +12°C° 0 mm 2 mps 631 mmHg 60%
    07:00 +13°C° 0 mm 2 mps 631 mmHg 54%
    08:00 +15°C° 0 mm 2 mps 631 mmHg 49%
    09:00 +16°C° 0 mm 3 mps 632 mmHg 47%
    10:00 +17°C° 0 mm 3 mps 632 mmHg 45%
    11:00 +18°C° 0 mm 3 mps 632 mmHg 44%
    12:00 +19°C° 0 mm 4 mps 632 mmHg 42%
    13:00 +19°C° 0 mm 4 mps 632 mmHg 42%
    14:00 +20°C° 0 mm 4 mps 632 mmHg 42%
    15:00 +20°C° 0 mm 4 mps 631 mmHg 42%
    16:00 +19°C° 0 mm 4 mps 631 mmHg 47%
    17:00 +18°C° 0 mm 4 mps 631 mmHg 51%
    18:00 +17°C° 0 mm 3 mps 631 mmHg 56%
    19:00 +14°C° 0 mm 3 mps 630 mmHg 58%
    20:00 +13°C° 0 mm 3 mps 630 mmHg 60%
    21:00 +11°C° 0 mm 3 mps 630 mmHg 62%
    22:00 +11°C° 0 mm 3 mps 630 mmHg 62%
    23:00 +10°C° 0 mm 3 mps 630 mmHg 61%

    Tomorrow, 23 May, Tuesday

    Time Temperature Precipitation Wind Pressure Humidity
    00:00 +10°C° 0 mm 2 mps 630 mmHg 61%
    01:00 +9°C° 0 mm 2 mps 630 mmHg 60%
    02:00 +9°C° 0 mm 2 mps 630 mmHg 58%
    03:00 +9°C° 0 mm 2 mps 630 mmHg 56%
    04:00 +10°C° 0 mm 2 mps 631 mmHg 55%
    05:00 +12°C° 0 mm 2 mps 631 mmHg 54%
    06:00 +13°C° 0 mm 2 mps 632 mmHg 53%
    07:00 +14°C° 0 mm 3 mps 632 mmHg 47%
    08:00 +17°C° 0 mm 3 mps 633 mmHg 41%
    09:00 +19°C° 0 mm 4 mps 633 mmHg 35%
    10:00 +20°C° 0 mm 4 mps 633 mmHg 34%
    11:00 +21°C° 0 mm 4 mps 633 mmHg 33%
    12:00 +22°C° 0 mm 4 mps 633 mmHg 32%
    13:00 +22°C° 0 mm 4 mps 632 mmHg 31%
    14:00 +23°C° 0 mm 4 mps 632 mmHg 31%
    15:00 +23°C° 0 mm 4 mps 632 mmHg 31%
    16:00 +22°C° 0 mm 4 mps 632 mmHg 35%
    17:00 +21°C° 0 mm 3 mps 631 mmHg 39%
    18:00 +20°C° 0 mm 3 mps 631 mmHg 43%
    19:00 +18°C° 0 mm 3 mps 631 mmHg 46%
    20:00 +16°C° 0 mm 2 mps 631 mmHg 49%
    21:00 +15°C° 0 mm 2 mps 631 mmHg 52%
    22:00 +14°C° 0 mm 2 mps 631 mmHg 53%
    23:00 +12°C° 0 mm 3 mps 631 mmHg 55%

    Day after tomorrow, 24 May, Wednesday

    Time Temperature Precipitation Wind Pressure Humidity
    00:00 +12°C° 0 mm 3 mps 631 mmHg 57%
    01:00 +11°C° 0 mm 3 mps 631 mmHg 60%
    02:00 +10°C° 0 mm 3 mps 631 mmHg 63%
    03:00 +9°C° 0 mm 2 mps 631 mmHg 65%
    04:00 +10°C° 0.1 mm 2 mps 631 mmHg 63%
    05:00 +12°C° 0.1 mm 2 mps 631 mmHg 61%
    06:00 +13°C° 0.1 mm 2 mps 632 mmHg 58%
    07:00 +15°C° 0.1 mm 2 mps 632 mmHg 53%
    08:00 +17°C° 0.1 mm 3 mps 633 mmHg 47%
    09:00 +19°C° 0.1 mm 3 mps 633 mmHg 42%
    10:00 +20°C° 0 mm 4 mps 633 mmHg 41%
    11:00 +21°C° 0 mm 4 mps 633 mmHg 40%
    12:00 +21°C° 0 mm 4 mps 633 mmHg 40%
    13:00 +20°C° 0.5 mm 4 mps 632 mmHg 47%
    14:00 +19°C° 0.5 mm 4 mps 631 mmHg 54%
    15:00 +18°C° 0.5 mm 4 mps 631 mmHg 62%
    16:00 +17°C° 0.4 mm 3 mps 631 mmHg 65%
    17:00 +16°C° 0.4 mm 3 mps 631 mmHg 68%
    18:00 +15°C° 0.4 mm 2 mps 631 mmHg 71%
    19:00 +13°C° 0 mm 2 mps 631 mmHg 76%
    20:00 +12°C° 0 mm 2 mps 631 mmHg 80%
    21:00 +9°C° 0 mm 2 mps 632 mmHg 84%
    22:00 +10°C° 0 mm 1 mps 632 mmHg 84%
    23:00 +10°C° 0 mm 1 mps 632 mmHg 84%

    25 May, Thursday

    Time Temperature Precipitation Wind Pressure Humidity
    00:00 +9°C° 0 mm 1 mps 632 mmHg 84%
    01:00 +9°C° 0 mm 1 mps 632 mmHg 84%
    02:00 +9°C° 0 mm 1 mps 632 mmHg 84%
    03:00 +8°C° 0 mm 2 mps 632 mmHg 84%
    04:00 +9°C° 0 mm 2 mps 632 mmHg 81%
    05:00 +10°C° 0 mm 2 mps 633 mmHg 79%
    06:00 +10°C° 0 mm 2 mps 633 mmHg 76%
    07:00 +13°C° 0 mm 2 mps 634 mmHg 69%
    08:00 +14°C° 0 mm 3 mps 634 mmHg 62%
    09:00 +16°C° 0 mm 3 mps 635 mmHg 55%
    10:00 +17°C° 0 mm 3 mps 635 mmHg 53%
    11:00 +18°C° 0 mm 3 mps 635 mmHg 51%
    12:00 +19°C° 0 mm 4 mps 634 mmHg 49%
    13:00 +19°C° 0 mm 4 mps 634 mmHg 49%
    14:00 +19°C° 0 mm 4 mps 634 mmHg 49%
    15:00 +20°C° 0 mm 4 mps 634 mmHg 49%
    16:00 +18°C° 0 mm 3 mps 634 mmHg 56%
    17:00 +17°C° 0 mm 3 mps 634 mmHg 63%
    18:00 +16°C° 0 mm 3 mps 634 mmHg 70%
    19:00 +15°C° 0 mm 2 mps 634 mmHg 75%
    20:00 +14°C° 0 mm 2 mps 634 mmHg 81%
    21:00 +12°C° 0 mm 2 mps 634 mmHg 86%
    22:00 +12°C° 0 mm 2 mps 634 mmHg 87%
    23:00 +11°C° 0 mm 1 mps 634 mmHg 88%

    26 May, Friday

    Time Temperature Precipitation Wind Pressure Humidity
    00:00 +10°C° 0 mm 1 mps 634 mmHg 89%
    01:00 +10°C° 0 mm 1 mps 633 mmHg 89%
    02:00 +9°C° 0 mm 1 mps 633 mmHg 89%
    03:00 +9°C° 0 mm 1 mps 633 mmHg 89%
    04:00 +10°C° 0 mm 1 mps 634 mmHg 86%
    05:00 +11°C° 0 mm 1 mps 634 mmHg 82%
    06:00 +13°C° 0 mm 1 mps 635 mmHg 78%
    07:00 +14°C° 0 mm 1 mps 635 mmHg 71%
    08:00 +16°C° 0 mm 2 mps 636 mmHg 64%
    09:00 +18°C° 0 mm 2 mps 636 mmHg 57%
    10:00 +18°C° 0 mm 2 mps 636 mmHg 55%
    11:00 +19°C° 0 mm 3 mps 636 mmHg 53%
    12:00 +20°C° 0 mm 3 mps 635 mmHg 51%
    13:00 +20°C° 0 mm 3 mps 635 mmHg 52%
    14:00 +20°C° 0 mm 3 mps 635 mmHg 53%
    15:00 +20°C° 0 mm 3 mps 635 mmHg 54%
    16:00 +19°C° 0 mm 3 mps 634 mmHg 59%
    17:00 +19°C° 0 mm 3 mps 634 mmHg 65%
    18:00 +18°C° 0 mm 2 mps 634 mmHg 70%
    19:00 +16°C° 0 mm 2 mps 634 mmHg 74%
    20:00 +15°C° 0 mm 2 mps 633 mmHg 79%
    21:00 +13°C° 0 mm 2 mps 633 mmHg 83%
    22:00 +12°C° 0 mm 2 mps 633 mmHg 83%
    23:00 +12°C° 0 mm 1 mps 632 mmHg 82%

    27 May, Saturday

    Time Temperature Precipitation Wind Pressure Humidity
    00:00 +11°C° 0 mm 1 mps 632 mmHg 81%
    01:00 +11°C° 0 mm 1 mps 632 mmHg 81%
    02:00 +10°C° 0 mm 1 mps 632 mmHg 80%
    03:00 +10°C° 0 mm 1 mps 631 mmHg 79%
    04:00 +11°C° 0 mm 1 mps 632 mmHg 77%
    05:00 +13°C° 0 mm 1 mps 633 mmHg 75%
    06:00 +14°C° 0 mm 1 mps 633 mmHg 72%
    07:00 +16°C° 0 mm 2 mps 634 mmHg 65%
    08:00 +18°C° 0 mm 2 mps 634 mmHg 58%
    09:00 +20°C° 0 mm 2 mps 634 mmHg 51%
    10:00 +21°C° 0 mm 3 mps 634 mmHg 48%
    11:00 +22°C° 0 mm 3 mps 634 mmHg 46%
    12:00 +23°C° 0 mm 4 mps 633 mmHg 43%
    13:00 +23°C° 0 mm 4 mps 633 mmHg 45%
    14:00 +23°C° 0 mm 4 mps 632 mmHg 47%
    15:00 +23°C° 0 mm 4 mps 632 mmHg 49%
    16:00 +21°C° 0.3 mm 3 mps 632 mmHg 55%
    17:00 +20°C° 0.3 mm 3 mps 631 mmHg 61%
    18:00 +19°C° 0.3 mm 2 mps 631 mmHg 67%
    19:00 +17°C° 0 mm 2 mps 630 mmHg 67%
    20:00 +16°C° 0 mm 2 mps 630 mmHg 66%
    21:00 +14°C° 0 mm 2 mps 630 mmHg 66%
    22:00 +14°C° 0 mm 2 mps 630 mmHg 64%
    23:00 +12°C° 0 mm 3 mps 629 mmHg 63%
    Show more